User: anonymous   Login
Location: Unspecified
(0.0000°N, 0.0000°E)
Time: 19:12:07
(UTC+00:00)
Language:

TBA - TO BE ASSIGNED - Orbit

View from above orbital plane
View from above orbital plane
View from above satellite
View from above satellite

Ground track
Ground track

The orbit is defined by the following mean orbital elements,

1 68948U          26145.37141784 +.00000000 +00000-0 +26640-3 0 00002
2 68948  51.8770 178.3288 0016238  60.8650 299.3956 15.28983199    05
Epoch (UTC): 25 May 2026 08:54:50
Eccentricity: 0.0016238
inclination: 51.8770°
perigee height: 468 km
apogee height: 490 km
right ascension of ascending node: 178.3288°
argument of perigee: 60.8650°
revolutions per day: 15.28983199
mean anomaly at epoch: 299.3956°

The dashed part of the orbit path shows where the satellite is in the earth's shadow,  

DLR